CW3577 Weather Reports


time (UTC)temp
C
wind
direction
speed
KPH
gust
KPH
rain 1hr
cm
rain 24hr
cm
rain mn
cm
humidity
%
barometer
mb
20260507071535 10 271 3.2 8.0 0.00 0.58 0.05 88 1007.3
20260507070050 10 269 0.0 6.4 0.00 0.58 0.05 88 1007.0
20260507064515 10 263 0.0 3.2 0.00 0.58 0.05 87 1006.9
20260507063033 11 263 0.0 3.2 0.00 0.58 0.05 87 1007.2
20260507061557 10 263 1.6 4.8 0.00 0.58 0.05 86 1007.0
20260507060023 11 290 3.2 8.0 0.00 0.58 0.05 85 1007.2
20260507054546 11 320 3.2 12.9 0.00 0.58 0.05 85 1007.3
20260507053005 11 325 6.4 19.3 0.00 0.58 0.05 86 1007.7
20260507051536 11 321 1.6 14.5 0.03 0.58 0.05 86 1007.4
20260507050057 11 306 4.8 14.5 0.05 0.58 0.05 87 1007.7
20260507044516 12 307 3.2 14.5 0.10 0.58 0.05 88 1007.2
20260507043030 12 327 8.0 20.9 0.10 0.58 0.05 89 1007.3
20260507041556 13 284 1.6 11.3 0.08 0.56 0.03 89 1007.1
20260507040019 13 302 4.8 12.9 0.05 0.53 0.53 88 1007.4
20260507034537 13 315 4.8 14.5 0.00 0.48 0.48 86 1007.2
20260507033055 13 323 3.2 25.7 0.00 0.48 0.48 86 1006.7
20260507031525 15 332 6.4 16.1 0.00 0.48 0.48 92 1006.3
20260507030039 15 334 4.8 14.5 0.00 0.48 0.48 93 1006.0
20260507024507 15 236 0.0 11.3 0.00 0.48 0.48 93 1006.2
20260507023027 15 237 3.2 9.7 0.00 0.48 0.48 93 1006.2
20260507021552 15 192 0.0 6.4 0.00 0.48 0.48 93 1006.0
20260507020027 15 192 0.0 6.4 0.00 0.48 0.48 92 1005.8
20260507014554 15 195 1.6 6.4 0.00 0.48 0.48 92 1005.9
20260507013021 15 171 0.0 9.7 0.00 0.48 0.48 92 1006.0
20260507011531 15 175 0.0 9.7 0.00 0.48 0.48 92 1006.0
20260507010053 15 205 1.6 9.7 0.00 0.48 0.48 92 1006.1
20260507004529 15 184 3.2 9.7 0.00 0.48 0.48 92 1005.9
20260507003037 15 165 3.2 16.1 0.00 0.48 0.48 92 1005.8
20260507001602 15 180 6.4 11.3 0.00 0.48 0.48 92 1005.7
20260507000028 15 171 8.0 16.1 0.05 0.48 0.48 92 1005.8
20260506234555 15 177 8.0 19.3 0.10 0.48 0.48 92 1005.6
20260506233019 15 196 4.8 16.1 0.15 0.48 0.48 92 1005.6
20260506231549 15 182 3.2 14.5 0.20 0.48 0.48 92 1005.6
20260506230004 15 161 3.2 9.7 0.23 0.43 0.43 92 1005.7
20260506224528 15 204 1.6 12.9 0.20 0.38 0.38 92 1005.8
20260506223054 15 232 3.2 12.9 0.15 0.33 0.33 91 1005.7
20260506221516 15 175 6.4 16.1 0.10 0.28 0.28 90 1005.9
20260506220031 15 180 8.0 20.9 0.05 0.20 0.20 90 1005.9
20260506214558 15 182 1.6 22.5 0.03 0.18 0.18 89 1006.1
20260506213018 15 173 8.0 22.5 0.05 0.18 0.18 89 1006.0
20260506211601 15 168 8.0 19.3 0.08 0.18 0.18 89 1006.3
20260506210103 15 168 12.9 17.7 0.08 0.15 0.15 89 1006.5
20260506204529 16 178 6.4 17.7 0.08 0.15 0.15 89 1006.6
20260506203052 16 169 4.8 16.1 0.05 0.13 0.13 88 1006.7
20260506201530 16 205 3.2 16.1 0.05 0.10 0.10 87 1006.6
20260506200040 17 158 4.8 16.1 0.05 0.08 0.08 84 1006.6
20260506194506 17 200 4.8 14.5 0.05 0.08 0.08 84 1006.7
20260506193036 17 178 4.8 11.3 0.08 0.08 0.08 83 1006.7
20260506191554 17 196 4.8 11.3 0.05 0.05 0.05 79 1006.6
20260506190020 18 191 3.2 20.9 0.03 0.03 0.03 75 1006.6
20260506184540 19 165 9.7 22.5 0.03 0.03 0.03 70 1006.8
20260506183002 20 243 9.7 24.1 0.00 0.00 0.00 66 1006.9
20260506181523 21 159 11.3 32.2 0.00 0.00 0.00 62 1007.0
20260506180050 21 160 9.7 29.0 0.00 0.00 0.00 60 1007.0
20260506174511 22 257 17.7 38.6 0.00 0.00 0.00 55 1007.0
20260506173034 22 184 16.1 32.2 0.00 0.00 0.00 53 1006.8
20260506171552 22 185 6.4 25.7 0.00 0.00 0.00 54 1007.0
20260506170011 22 155 16.1 32.2 0.00 0.00 0.00 55 1007.1
20260506164530 22 119 8.0 19.3 0.00 0.00 0.00 57 1007.3
20260506163104 21 200 16.1 24.1 0.00 0.00 0.00 58 1007.6
20260506161517 21 165 12.9 24.1 0.00 0.00 0.00 57 1007.8
20260506160041 21 192 9.7 25.7 0.00 0.00 0.00 59 1008.1
20260506154506 21 157 6.4 17.7 0.00 0.00 0.00 61 1008.4
20260506153023 20 172 11.3 17.7 0.00 0.00 0.00 62 1008.7
20260506151558 20 182 9.7 24.1 0.00 0.00 0.00 62 1008.8
20260506150017 21 218 12.9 30.6 0.00 0.00 0.00 61 1008.9
20260506144559 20 217 9.7 19.3 0.00 0.00 0.00 62 1009.1
20260506143015 20 208 8.0 22.5 0.00 0.00 0.00 63 1009.0
20260506141534 20 176 6.4 27.4 0.00 0.00 0.00 64 1008.9
20260506140053 20 151 16.1 25.7 0.00 0.00 0.00 66 1008.8
20260506134517 20 144 11.3 35.4 0.00 0.00 0.00 67 1008.8
20260506133037 19 199 6.4 24.1 0.00 0.00 0.00 70 1009.2
20260506131503 18 189 6.4 14.5 0.00 0.00 0.00 71 1009.4
20260506130017 18 213 8.0 22.5 0.00 0.00 0.00 72 1009.6
20260506124535 17 182 8.0 19.3 0.00 0.00 0.00 72 1009.7
20260506123003 17 155 9.7 24.1 0.00 0.00 0.00 73 1009.4
20260506121527 17 209 4.8 22.5 0.00 0.00 0.00 73 1009.8
20260506120051 17 206 14.5 20.9 0.00 0.00 0.00 73 1009.6
20260506114511 16 198 8.0 19.3 0.00 0.00 0.00 75 1009.8
20260506113035 16 173 11.3 20.9 0.00 0.00 0.00 75 1009.8
20260506111555 16 204 4.8 19.3 0.00 0.00 0.00 76 1010.0
20260506110019 16 184 1.6 12.9 0.00 0.00 0.00 76 1009.8
20260506104540 15 169 6.4 16.1 0.00 0.00 0.00 77 1009.9
20260506103011 15 213 4.8 17.7 0.00 0.00 0.00 77 1009.8
20260506101523 15 178 4.8 12.9 0.00 0.00 0.00 77 1009.8
20260506100050 15 160 4.8 12.9 0.00 0.00 0.00 77 1009.8
20260506094509 15 173 9.7 17.7 0.00 0.00 0.00 76 1009.9
20260506093024 15 186 6.4 11.3 0.00 0.00 0.00 75 1009.5
20260506091549 15 195 6.4 17.7 0.00 0.00 0.00 75 1009.7
20260506090018 16 165 4.8 17.7 0.00 0.00 0.00 74 1009.7
20260506084541 16 153 6.4 16.1 0.00 0.00 0.00 73 1009.7
20260506083053 16 207 6.4 19.3 0.00 0.00 0.00 72 1009.8
20260506081518 16 171 6.4 17.7 0.00 0.00 0.00 71 1009.8
20260506073016 17 144 4.8 14.5 0.00 0.00 0.00 69 1009.7